Regional Weather Roundup
Issued by NWS

Home | Current Version | Previous Version | Text Only | Print | Product List | Glossary On
Versions: 1 2 3 4 5 6 7 8 9 10 11 12 13 14 15 16 17 18 19 20 21 22 23 24 25 26 27 28 29 30 31 32 33 34 35 36 37 38 39 40 41 42 43 44 45 46 47 48 49 50
000
ASUS43 KBIS 251110
RWRND

NORTH DAKOTA REGIONAL WEATHER ROUNDUP
NATIONAL WEATHER SERVICE BISMARCK ND
600 AM CDT WED MAY 25 2016

NOTE: "FAIR" INDICATES FEW OR NO CLOUDS BELOW 12,000 FEET WITH NO
SIGNIFICANT WEATHER AND/OR OBSTRUCTIONS TO VISIBILITY.


NDZ001>003-009>011-017-251200-
NORTHWEST NORTH DAKOTA

CITY           SKY/WX    TMP DP  RH WIND       PRES   REMARKS
WILLISTON      RAIN      51  47  86 N13       29.85F
MINOT          CLOUDY    59  55  87 S5        29.85R
MINOT AFB      DRIZZLE   57  53  87 NE5       29.83F
$$

NDZ018>021-031>035-040>046-251200-
SOUTHWEST NORTH DAKOTA

CITY           SKY/WX    TMP DP  RH WIND       PRES   REMARKS
BISMARCK       CLOUDY    58  56  93 CALM      29.81F
DICKINSON      CLOUDY    49  47  93 E5        29.81R
GARRISON         N/A     56  54  93 E6        29.85F
HETTINGER ARPT CLOUDY    55  48  77 SE3       29.83F
$$

NDZ004>008-012>016-024-026-027-054-251200-
NORTHEAST NORTH DAKOTA

CITY           SKY/WX    TMP DP  RH WIND       PRES   REMARKS
GRAND FORKS    CLOUDY    59  52  77 E8        29.84F
GRND FRKS AFB  CLOUDY    55  53  93 N6        29.85F
DEVILS LAKE    CLOUDY    64  49  57 E8        29.83F
$$

NDZ022-023-025-028>030-036>039-047>053-251200-
SOUTHEAST NORTH DAKOTA

CITY           SKY/WX    TMP DP  RH WIND       PRES   REMARKS
FARGO          CLOUDY    66  49  54 E13       29.80F
$$




USA.gov is the U.S. government's official web portal to all federal, state and local government web resources and services.